Probability
0 0 0 0 0 0 0 0 0 0 0 0 0 0 0 0 0 0 0 0 0 0 0 0 0 0 0 0 0 0 0 0 0 0 0 0 0 0 0 0 0 0 0
0 0 0 0 0 0 0 0 0 0 0 0 0 0 0 0 0 0 0 0 0 0 0 0 0 0 0 0 0 0 0 0 0 0 0 0 0 0 0 0 0 0 0
1 1 0 0 0 0 0 0 0 0 0 0 0 0 0 0 0 0 0 0 0 0 0 1 1 0 0 0 0 0 0 0 0 0 0 0 0 0 0 0 0 0 0
2 2 1 0 0 0 0 0 0 0 0 0 0 0 0 0 0 0 0 0 0 0 0 1 2 1 0 0 0 0 0 0 0 0 0 0 0 0 0 0 0 0 0
4 3 1 1 1 1 0 0 0 0 0 0 0 0 0 0 0 0 0 0 0 0 0 1 2 1 0 0 0 0 0 0 0 0 0 0 0 0 0 0 0 0 0
7 5 3 3 3 3 1 1 1 0 0 0 0 0 0 0 0 0 0 0 0 0 0 0 1 1 0 0 0 0 0 0 0 0 0 0 0 0 0 0 0 0 0
11 9 6 5 4 4 3 2 2 1 0 0 0 0 0 0 0 0 0 0 0 0 0 0 0 0 0 0 0 0 0 0 0 0 0 0 0 0 0 0 0 0 0
15 13 10 6 4 3 2 2 3 2 1 0 0 0 0 0 0 0 0 0 0 0 0 0 0 0 0 0 0 0 0 0 0 0 0 0 0 0 0 0 0 0 0
18 17 13 8 5 3 1 1 2 3 2 1 1 1 0 0 0 0 0 0 0 0 0 0 0 0 0 0 0 0 0 0 0 0 0 1 1 0 0 0 0 0 0
16 17 14 10 6 2 0 0 1 2 2 1 1 1 0 0 0 0 0 0 0 0 0 0 0 0 0 0 0 0 0 0 0 0 1 2 2 1 0 0 0 0 0
9 11 11 9 6 4 2 1 0 1 1 0 0 0 0 0 0 0 0 0 0 0 0 0 0 0 0 0 0 0 0 0 0 0 1 4 4 2 0 0 0 0 0
4 5 5 5 5 5 4 3 1 0 0 0 0 0 0 0 0 0 0 0 0 0 0 0 0 0 0 0 0 0 0 0 0 0 1 2 3 2 1 1 0 0 0
3 2 2 2 3 4 4 3 2 0 0 0 0 0 0 0 0 0 0 0 0 0 0 0 0 0 0 0 0 0 0 0 0 0 0 1 1 2 2 3 1 0 0
1 1 0 1 1 1 1 1 1 0 0 0 0 0 0 0 0 0 0 0 0 0 0 0 0 0 0 0 0 0 0 0 0 0 0 0 0 1 1 2 2 0 0
0 0 0 0 0 0 0 0 0 0 0 0 0 0 0 1 1 0 0 0 0 0 0 0 0 0 0 0 0 0 0 0 0 0 0 0 0 0 0 1 1 0 0
0 0 0 1 1 1 0 0 0 0 0 0 0 1 1 2 2 1 1 1 0 0 0 0 0 0 0 0 0 0 0 0 0 0 0 0 0 0 0 0 0 0 0
0 0 0 1 1 1 1 0 0 0 0 0 0 1 2 2 2 2 2 1 1 1 0 0 0 0 0 0 0 0 0 0 0 0 0 0 0 0 0 0 0 0 0
0 0 0 0 1 1 1 1 2 2 1 1 0 1 1 1 1 1 1 1 2 2 1 0 0 0 0 0 0 0 0 0 0 0 0 0 0 0 0 0 0 0 0
0 0 0 0 0 0 1 2 3 3 3 2 1 1 1 1 0 0 0 1 2 2 1 0 0 0 0 0 0 0 0 0 0 0 0 0 0 0 0 0 0 0 0
1 0 0 0 0 0 0 1 2 3 3 3 2 2 2 2 1 0 0 0 1 1 1 0 0 0 0 0 0 0 0 0 0 0 0 0 0 0 0 0 0 0 0
2 1 1 0 0 0 0 0 1 1 2 3 2 2 2 2 1 0 0 0 0 0 0 0 0 0 0 0 0 0 0 0 0 0 0 0 0 0 0 0 0 0 0
4 3 2 1 0 0 0 0 0 0 1 1 2 1 1 1 0 0 0 0 0 0 0 0 0 0 0 0 0 0 0 0 0 0 0 0 0 0 0 0 0 0 0
5 4 2 1 0 0 0 0 0 0 0 0 1 1 0 0 0 0 0 0 0 0 0 0 0 0 0 0 0 0 0 0 0 0 0 0 0 0 0 0 0 0 0
4 3 1 0 0 0 0 0 0 0 0 0 0 0 0 0 0 0 0 0 0 0 0 0 0 0 0 0 0 0 0 0 0 0 0 0 0 0 0 0 0 0 0
3 2 1 0 0 0 0 0 0 0 0 0 0 0 0 0 0 0 0 0 0 0 0 0 0 0 0 0 0 0 0 0 0 0 0 0 0 0 0 0 0 0 0
3 2 1 0 0 0 0 0 0 0 0 0 0 0 0 0 0 0 0 0 0 0 0 0 0 0 0 0 0 0 0 0 0 0 0 0 0 0 0 0 0 0 0
Wind_Speed
5 4 3 3 3 2 3 2 2 2 2 2 3 5 6 5 5 5 4 13 13 12 13 13 12 12 11 11 10 10 9 9 9 8 8 8 8 8 8 7 7 7 6
5 5 4 4 3 3 3 3 3 2 2 2 3 4 6 6 6 6 4 8 13 12 12 13 13 13 12 12 11 10 10 10 9 9 8 8 8 7 7 7 7 7 7
6 6 5 4 4 4 4 3 3 1 1 1 2 3 4 6 6 6 6 4 6 11 13 13 13 13 13 12 12 11 11 10 10 9 9 8 8 7 7 7 7 7 7
7 6 5 4 4 4 3 3 2 2 1 1 2 2 3 4 6 6 5 5 4 5 9 13 13 12 13 13 13 13 12 11 11 10 10 9 9 8 8 8 8 8 8
7 6 5 4 5 4 3 4 2 2 2 2 2 2 2 3 5 7 6 7 6 5 5 9 13 13 14 14 14 14 13 13 12 12 12 11 11 10 9 9 9 9 9
7 6 4 5 4 3 3 3 3 2 2 2 2 1 2 3 3 5 7 7 6 7 7 7 6 9 14 14 14 14 14 14 14 13 13 13 12 11 10 10 10 10 9
6 6 5 4 4 4 5 5 3 3 2 2 2 1 2 1 2 4 4 5 7 8 7 7 6 5 6 13 13 14 15 15 15 14 14 14 13 12 12 12 11 11 11
7 7 6 5 5 4 4 4 3 3 2 2 3 2 1 3 3 3 3 5 6 5 7 9 7 7 6 5 8 14 15 16 16 16 15 14 13 12 12 13 12 12 12
8 6 7 6 5 5 5 5 4 5 3 2 2 4 3 3 2 3 3 4 4 4 5 6 8 8 8 6 6 11 15 14 15 16 15 14 14 13 13 13 13 13 12
7 7 6 7 6 5 5 6 5 4 4 3 2 2 3 4 3 2 3 2 3 4 6 6 7 8 8 6 8 11 15 15 16 16 15 15 14 14 14 13 14 14 13
6 7 7 6 6 5 6 5 5 5 4 4 3 2 1 1 2 2 2 3 2 3 4 5 5 6 7 7 7 10 14 15 15 15 14 14 14 14 14 15 15 15 14
5 6 7 7 6 6 6 6 6 6 5 5 3 3 3 3 3 3 3 3 3 3 3 3 4 5 5 6 9 13 15 15 14 15 15 14 14 14 14 14 14 15 15
4 6 7 6 6 6 6 6 6 6 6 5 5 4 3 3 3 3 3 2 2 2 2 2 4 4 5 5 6 11 12 13 14 14 14 13 13 12 12 13 13 14 14
5 6 6 6 6 6 6 5 4 5 5 5 6 5 3 3 3 3 3 3 1 2 2 3 2 3 3 4 6 9 7 12 13 13 13 13 13 12 12 11 11 11 11
4 6 6 6 6 6 6 5 4 5 4 5 5 5 4 3 2 3 3 3 4 2 3 3 2 2 3 3 5 4 5 9 12 13 13 13 13 13 12 11 11 11 10
4 5 6 5 5 5 5 5 4 4 4 4 3 4 3 2 2 2 2 2 3 4 3 3 3 2 2 2 3 3 4 6 10 11 12 12 12 12 11 11 11 11 11
3 4 4 5 5 5 5 5 4 4 4 4 3 4 3 2 2 1 1 2 2 3 3 3 2 1 1 1 1 1 2 3 4 9 11 11 11 11 11 11 11 11 11
2 2 3 4 4 4 4 5 5 4 5 4 4 3 3 2 2 1 1 2 2 2 3 3 2 1 1 1 1 1 2 2 3 6 8 9 10 11 11 11 11 11 10
1 1 2 3 4 3 4 4 5 4 4 4 4 4 3 3 3 2 2 1 1 1 1 2 2 1 1 1 1 1 1 2 2 3 4 6 8 8 8 9 9 9 10
2 2 2 2 3 3 3 3 4 4 3 3 3 3 3 4 4 3 2 1 1 0 1 1 0 1 1 1 1 1 2 2 2 2 2 1 2 4 5 5 6 7 8
3 2 3 2 3 2 2 3 3 4 3 3 2 2 2 2 2 2 2 1 1 1 1 1 1 1 1 1 1 1 1 2 2 1 1 1 1 1 1 2 3 5 5
4 4 4 4 4 3 5 6 4 3 3 3 3 2 3 4 5 5 5 3 2 2 1 1 0 0 1 1 1 1 1 1 2 2 1 2 1 1 1 1 2 3 3
5 5 5 5 5 5 6 7 6 4 4 3 3 3 3 4 4 4 5 6 6 5 2 2 1 0 1 1 1 1 1 1 2 2 0 1 2 2 2 2 3 2 2
5 5 6 5 5 6 7 8 7 5 5 5 4 3 4 3 4 4 5 5 5 5 4 3 2 2 2 1 0 0 1 1 1 2 1 0 2 2 2 3 4 4 4
6 6 6 6 6 6 8 8 6 5 5 5 5 6 5 5 6 7 6 6 5 5 7 8 7 6 7 7 4 2 2 2 2 2 2 1 1 2 2 2 3 5 5
6 6 7 7 7 7 9 9 6 4 6 5 5 6 8 8 8 8 6 6 6 4 4 6 6 7 6 7 7 3 1 1 1 2 2 2 1 2 2 2 2 3 4
Wind_Direction
170 173 173 176 183 178 184 189 206 230 241 222 175 157 158 159 161 169 178 180 178 178 177 178 179 179 180 181 181 181 181 179 176 176 177 178 177 178 178 177 176 176 176
172 173 176 182 192 192 194 193 201 212 225 195 171 163 161 164 170 174 178 186 187 186 186 186 187 188 189 190 191 190 190 189 186 186 187 188 188 189 189 189 188 186 186
172 171 176 185 193 190 190 194 205 204 206 183 175 168 161 171 173 179 181 184 190 195 195 195 195 196 197 198 198 198 198 197 195 196 196 197 196 197 197 198 199 196 196
171 168 174 186 186 179 179 183 180 175 197 185 188 186 170 175 182 184 185 188 190 198 204 204 202 202 205 205 205 205 204 202 201 202 203 205 204 203 206 208 208 205 205
174 169 177 183 177 174 179 192 174 170 186 201 201 197 190 185 186 189 191 196 197 199 198 209 208 207 210 212 212 212 210 209 208 209 211 213 213 211 212 214 214 213 213
178 172 177 180 170 166 174 177 167 170 181 191 200 201 229 211 197 194 197 198 202 205 202 206 208 215 217 217 218 218 217 215 214 215 216 218 218 216 215 218 220 220 219
182 178 180 176 170 175 183 176 161 169 191 152 97 1 328 288 227 216 205 195 203 205 201 204 205 208 218 221 221 222 222 222 219 218 219 220 220 218 217 220 223 225 225
188 188 179 181 180 176 182 182 165 163 193 161 138 118 337 332 306 240 212 203 206 202 204 206 206 207 212 212 221 223 225 227 225 222 221 221 221 220 220 221 223 226 228
194 190 184 184 186 182 189 192 176 168 183 201 168 151 160 222 278 298 243 217 201 199 208 206 208 210 212 213 217 225 227 227 229 228 224 221 220 220 221 223 225 227 229
197 192 189 190 190 189 191 197 186 174 165 189 213 202 181 166 167 281 306 264 222 211 210 213 213 212 212 212 216 218 224 225 226 229 228 224 222 222 223 225 229 231 230
200 194 193 192 192 193 197 196 184 182 178 181 187 188 189 172 160 164 257 290 283 241 218 213 212 212 212 212 213 220 222 223 223 227 228 227 226 225 225 228 233 235 235
208 203 197 196 196 195 200 199 192 189 191 187 186 183 175 176 191 178 204 242 258 265 238 217 213 213 213 211 218 220 219 221 222 223 225 225 224 226 227 231 236 239 240
208 212 207 200 200 202 201 195 194 197 194 192 195 200 198 201 182 173 177 212 246 277 281 242 225 216 214 206 218 221 220 219 220 221 223 224 226 228 229 232 236 240 242
207 206 205 202 200 202 205 193 194 202 199 201 208 202 203 213 194 183 177 170 211 288 287 270 265 228 222 208 217 215 221 219 220 220 221 223 226 230 232 232 236 239 243
207 202 202 205 205 204 204 192 198 204 195 199 205 204 206 214 198 191 180 170 170 213 260 269 267 252 228 210 218 209 216 218 218 220 222 224 225 228 229 231 234 236 239
206 197 204 201 205 204 198 188 194 195 188 197 195 194 202 207 196 189 185 190 184 183 229 256 252 261 246 224 205 208 221 226 223 224 227 229 230 231 232 234 234 235 236
200 199 198 196 198 200 194 190 195 187 187 193 194 187 199 195 195 197 186 196 192 176 213 259 262 275 242 230 230 229 232 226 231 228 230 231 233 234 235 236 236 236 237
196 200 191 186 191 190 187 186 193 188 183 188 192 183 199 200 197 202 201 206 201 194 198 241 283 318 296 241 222 246 255 241 237 234 231 233 234 236 238 239 239 238 237
154 157 168 178 178 179 179 185 188 184 181 185 186 188 196 184 203 207 201 209 222 211 184 202 261 297 318 348 12 336 326 298 274 259 236 235 240 243 244 243 242 240 237
123 124 138 149 151 153 167 172 168 163 163 165 170 179 186 189 198 190 186 193 184 135 123 139 274 326 331 332 45 360 332 316 299 316 315 282 263 258 256 252 251 250 246
107 105 99 98 103 118 136 131 136 147 146 143 136 139 139 133 135 140 146 147 127 105 92 80 334 1 351 357 333 308 293 301 312 328 337 332 339 339 286 263 262 264 256
85 85 81 84 84 87 98 105 119 124 131 135 129 119 101 81 78 82 85 91 111 134 155 142 192 296 294 298 313 321 305 349 314 318 0 313 355 330 302 277 298 285 279
87 82 80 83 82 77 90 94 102 105 102 103 101 96 87 75 78 78 72 63 56 52 85 135 122 281 302 292 295 327 308 231 249 285 40 304 341 336 326 339 338 342 339
83 80 78 79 80 67 78 85 88 90 88 82 83 95 96 83 67 77 77 67 58 44 46 64 79 41 18 342 321 260 273 310 308 338 29 346 340 332 337 344 355 2 352
82 74 74 73 75 60 65 79 90 93 87 77 71 69 76 74 63 74 81 77 63 44 48 58 60 57 50 41 39 56 38 47 357 332 1 41 332 326 325 329 349 2 351
87 82 72 65 67 62 58 67 81 89 87 79 67 61 60 67 63 68 80 81 71 42 38 45 43 35 35 33 34 46 61 72 50 332 337 23 339 359 340 319 325 338 342